Wind_Speed
19 18 18 17 17 17 17 16 16 16 16 17 17 17 18 18 19 19 19 20 20 21 21 21 22 22 23 23 23 24 24 24 24 25 25 25 25 26
21 21 20 19 19 19 19 18 18 19 19 19 20 20 20 21 22 22 22 23 23 23 23 24 25 25 26 26 26 27 27 27 28 28 29 29 29 29
22 22 22 22 22 21 21 20 20 21 21 22 23 23 23 24 24 25 25 26 26 26 27 27 27 28 29 29 30 30 30 31 31 31 32 32 32 33
23 23 23 24 24 23 23 23 23 23 24 25 25 26 26 27 28 28 29 29 29 30 30 30 30 31 32 32 33 33 34 34 35 35 35 35 36 36
24 24 25 25 25 26 26 25 26 27 27 28 29 29 30 30 31 31 32 32 32 33 33 33 33 34 35 35 36 36 37 38 38 39 39 39 39 40
25 26 26 26 26 27 27 27 28 29 29 30 31 32 32 32 33 33 33 34 35 35 36 36 36 37 38 39 39 40 41 42 42 42 42 43 43 44
25 25 25 26 27 27 28 29 30 31 32 33 33 34 34 35 36 36 36 36 37 37 38 39 40 40 41 42 43 44 45 45 45 45 46 46 47 47
27 26 26 28 29 29 29 31 32 33 34 34 34 36 36 37 37 38 38 38 39 40 42 42 44 44 45 45 46 46 47 48 48 49 49 50 50 51
26 27 28 29 30 32 32 33 33 34 35 36 37 37 37 38 39 39 40 41 41 42 44 44 45 46 47 48 49 49 50 50 51 51 52 52 53 54
28 28 29 31 32 33 34 34 34 35 36 37 38 39 40 40 41 42 43 43 44 45 47 47 47 48 49 50 51 52 53 53 54 54 55 56 57 57
29 31 31 32 33 34 35 35 36 37 39 40 41 42 43 43 44 45 46 46 47 48 50 50 51 52 52 53 55 56 57 57 58 59 60 60 61 60
30 31 32 33 34 35 36 38 38 40 41 42 43 44 45 46 47 48 49 50 51 51 53 54 55 56 56 56 57 58 59 61 61 62 61 61 61 61
30 32 33 34 35 36 37 39 41 42 43 44 45 47 48 48 49 50 51 52 54 55 56 57 58 58 59 59 58 59 60 61 61 61 61 61 60 60
32 34 35 37 38 39 40 41 42 43 44 45 46 47 48 49 51 52 54 55 57 58 59 59 59 60 60 61 61 61 61 61 61 60 60 60 60 60
33 35 37 38 40 40 41 42 44 45 45 46 47 48 49 51 52 54 56 57 58 60 61 61 62 62 62 63 62 62 61 61 60 59 58 57 57 57
35 37 37 38 40 42 43 44 45 46 47 48 49 51 52 53 55 57 58 59 60 60 62 63 63 63 63 62 63 62 61 59 57 56 55 53 52 52
36 38 39 40 42 43 45 46 47 48 50 51 52 54 55 56 57 58 58 60 61 61 61 62 62 62 61 61 60 59 58 56 54 53 51 50 49 49
38 39 41 42 43 44 46 47 48 50 51 53 54 55 56 56 57 57 58 58 59 59 58 58 57 57 56 55 54 53 52 50 49 48 47 45 44 44
37 39 41 42 44 45 47 48 50 51 53 54 55 55 55 55 55 55 55 55 54 54 53 52 51 50 49 47 47 47 47 45 44 44 43 41 40 39
39 41 43 44 46 48 50 51 51 52 52 53 54 54 54 53 53 52 51 50 49 48 47 46 45 44 43 42 40 40 41 41 39 38 38 37 36 36
41 42 44 45 47 48 49 50 51 51 51 51 51 50 50 49 48 47 46 45 44 43 41 40 40 39 38 37 35 34 34 34 33 32 32 32 32 32
43 44 45 46 47 48 49 49 49 49 49 48 48 47 46 45 44 43 42 40 38 37 36 36 36 35 34 33 31 30 29 29 28 28 28 27 27 26
43 44 45 46 47 48 48 48 47 47 46 45 44 42 41 41 40 39 38 36 35 35 34 34 33 32 32 31 29 28 27 27 26 26 27 26 26 24
Wind_Direction
240 242 243 246 248 252 255 256 257 260 263 266 270 273 276 279 281 282 283 284 286 286 286 286 285 284 284 284 284 283 282 281 281 281 282 282 281 281
242 244 244 247 248 253 256 257 259 262 265 269 273 277 280 280 281 282 283 284 284 285 286 285 285 284 283 282 282 282 282 281 281 281 281 281 280 280
246 245 246 248 250 253 255 258 262 265 268 270 273 276 278 280 281 283 283 283 284 284 285 285 285 285 284 282 281 281 281 281 280 280 280 280 279 279
247 248 250 250 251 254 256 259 263 266 269 271 273 275 277 280 282 282 282 283 283 284 284 284 283 283 283 282 282 281 281 281 280 279 279 279 278 277
247 250 252 254 255 257 258 261 265 268 270 272 273 275 277 279 281 282 282 282 282 282 283 284 283 283 282 282 282 281 281 281 280 280 279 278 278 277
249 252 255 256 259 260 261 264 266 269 271 273 274 275 277 278 280 282 283 283 283 282 283 283 284 284 282 281 281 281 281 281 280 280 279 278 278 278
253 255 259 260 261 264 265 266 269 271 273 274 275 276 277 279 280 281 281 282 283 281 281 282 283 283 283 282 282 281 281 281 280 280 280 279 278 278
257 258 262 264 264 264 266 269 271 273 275 277 277 277 278 280 280 281 282 282 281 281 282 283 283 283 283 283 283 283 282 282 281 280 280 280 280 278
261 262 263 267 268 267 268 270 273 275 276 276 279 279 280 280 281 281 282 282 282 282 283 283 283 283 283 283 283 283 283 282 282 282 281 280 280 279
264 265 267 269 271 272 271 273 275 276 277 278 280 281 281 281 282 282 283 283 283 283 283 283 283 282 283 283 283 283 282 282 282 282 282 281 281 280
266 268 270 272 272 272 273 274 276 278 279 280 281 281 282 282 283 283 284 284 284 284 284 284 283 283 283 283 283 283 283 282 282 282 281 281 280 280
268 269 271 271 272 274 276 278 279 280 281 282 282 282 282 283 283 283 284 284 284 284 284 284 284 284 284 284 284 284 284 284 284 283 283 282 281 280
271 272 273 274 275 277 279 280 280 280 281 281 282 283 284 284 284 285 285 285 286 286 285 285 285 285 284 284 284 285 284 284 284 284 283 282 283 282
274 274 275 276 277 279 280 281 281 282 282 283 284 284 285 286 286 286 286 286 287 287 287 286 286 286 286 285 286 286 286 285 285 284 284 283 283 283
277 277 278 278 278 280 281 282 283 283 284 285 285 286 286 286 287 288 288 288 288 289 288 288 287 287 287 287 287 287 287 287 286 285 284 284 283 283
279 280 280 280 281 282 283 283 284 285 285 286 287 287 288 289 289 289 289 289 289 289 289 289 289 290 290 289 289 288 287 286 284 283 284 283 283 282
282 283 282 283 283 284 285 285 286 287 288 289 289 290 290 290 290 289 290 290 289 290 290 290 290 291 291 290 289 288 287 285 284 283 283 283 283 282
284 283 283 283 285 286 287 288 288 289 290 290 291 291 291 291 291 291 291 291 292 291 291 291 291 291 291 291 290 288 287 286 285 284 284 283 282 282
285 285 286 287 288 289 290 290 291 292 292 292 293 293 293 293 293 293 294 294 294 294 294 293 293 293 292 291 290 288 288 286 285 285 284 283 283 282
289 290 290 290 291 292 292 293 294 295 295 295 295 295 295 295 295 295 295 296 296 296 296 295 295 295 294 293 291 290 289 288 287 286 285 283 283 283
292 293 293 293 294 295 296 296 297 297 297 297 297 297 296 296 296 297 297 297 297 297 297 297 297 297 297 297 296 295 294 292 289 288 287 286 285 284
295 296 296 297 298 298 298 298 298 299 299 299 299 299 298 298 298 298 299 299 298 298 299 299 298 298 299 299 298 298 297 295 293 292 291 291 291 288
299 300 300 300 301 300 300 300 300 300 300 300 300 299 299 299 299 299 299 299 300 300 299 299 299 299 300 300 300 300 298 296 295 294 295 295 296 294
Height
5873 5874 5876 5877 5877 5878 5879 5879 5880 5880 5880 5880 5879 5879 5878 5878 5877 5877 5876 5875 5874 5873 5872 5871 5870 5869 5868 5867 5866 5865 5864 5863 5862 5861 5860 5859 5858 5857
5869 5870 5871 5873 5873 5874 5875 5875 5876 5876 5876 5876 5875 5875 5874 5873 5872 5872 5871 5870 5869 5868 5867 5866 5865 5863 5862 5861 5860 5859 5857 5856 5855 5854 5853 5852 5851 5850
5864 5866 5867 5868 5869 5870 5870 5871 5871 5871 5871 5871 5870 5869 5869 5868 5867 5866 5865 5864 5863 5862 5861 5859 5858 5857 5855 5854 5853 5851 5850 5849 5848 5847 5846 5845 5843 5842
5859 5860 5862 5863 5863 5864 5865 5865 5866 5866 5866 5865 5864 5863 5863 5862 5861 5860 5858 5857 5856 5855 5853 5852 5851 5849 5847 5846 5844 5843 5842 5840 5839 5838 5837 5836 5834 5833
5853 5855 5856 5857 5857 5858 5859 5859 5860 5859 5859 5859 5858 5857 5856 5855 5854 5852 5851 5850 5848 5847 5845 5844 5842 5840 5838 5837 5835 5834 5832 5831 5829 5828 5826 5825 5824 5823
5848 5849 5850 5851 5851 5852 5852 5853 5853 5853 5852 5851 5850 5849 5848 5847 5845 5844 5843 5841 5839 5838 5836 5834 5832 5831 5829 5827 5825 5823 5821 5819 5818 5816 5815 5813 5812 5811
5842 5843 5844 5844 5845 5845 5845 5845 5845 5845 5844 5843 5842 5841 5839 5838 5836 5835 5833 5832 5830 5828 5826 5824 5822 5820 5818 5815 5813 5811 5809 5807 5806 5804 5802 5800 5799 5797
5837 5837 5837 5838 5838 5838 5838 5838 5837 5836 5835 5834 5833 5831 5830 5828 5826 5825 5823 5822 5820 5818 5815 5813 5810 5808 5806 5803 5801 5798 5796 5794 5792 5790 5788 5786 5784 5783
5830 5830 5830 5831 5830 5830 5829 5829 5828 5827 5826 5825 5824 5822 5820 5818 5816 5814 5812 5810 5808 5806 5803 5801 5798 5795 5792 5790 5787 5785 5782 5780 5777 5775 5773 5771 5769 5767
5824 5823 5823 5823 5822 5822 5821 5820 5819 5817 5816 5815 5813 5812 5809 5807 5805 5803 5800 5798 5796 5793 5790 5788 5786 5783 5779 5776 5772 5769 5767 5764 5762 5759 5757 5755 5753 5751
5816 5816 5815 5814 5814 5813 5812 5811 5809 5807 5805 5804 5802 5800 5798 5795 5793 5791 5788 5785 5783 5780 5776 5773 5771 5768 5765 5761 5757 5754 5751 5748 5745 5742 5740 5737 5735 5733
5808 5807 5807 5806 5805 5803 5802 5801 5799 5797 5795 5793 5791 5788 5786 5783 5780 5777 5774 5771 5768 5765 5761 5758 5755 5751 5750 5746 5741 5737 5733 5730 5727 5724 5720 5718 5715 5713
5800 5799 5798 5797 5796 5794 5793 5791 5789 5786 5784 5782 5779 5776 5773 5770 5766 5763 5760 5756 5753 5749 5746 5742 5739 5735 5731 5729 5725 5720 5715 5711 5708 5704 5701 5699 5696 5693
5791 5790 5789 5787 5786 5784 5782 5780 5777 5775 5772 5769 5766 5763 5760 5756 5753 5749 5745 5741 5737 5732 5728 5724 5721 5717 5713 5710 5707 5702 5697 5692 5689 5686 5683 5680 5677 5674
5782 5781 5779 5777 5775 5773 5770 5768 5765 5763 5760 5756 5753 5750 5746 5742 5738 5734 5729 5725 5720 5715 5710 5706 5702 5698 5694 5690 5687 5683 5679 5675 5670 5667 5664 5661 5658 5656
5772 5770 5768 5766 5764 5761 5759 5756 5753 5750 5746 5743 5739 5735 5731 5726 5722 5718 5713 5708 5703 5698 5691 5686 5682 5678 5674 5670 5666 5663 5658 5655 5652 5648 5646 5643 5640 5638
5762 5760 5757 5755 5752 5750 5746 5743 5740 5736 5732 5728 5724 5719 5715 5710 5705 5701 5696 5691 5686 5681 5676 5670 5663 5659 5655 5651 5647 5643 5639 5636 5633 5631 5628 5627 5624 5621
5752 5749 5746 5743 5740 5737 5733 5730 5726 5721 5717 5713 5708 5704 5699 5694 5689 5684 5679 5674 5668 5663 5657 5652 5647 5642 5638 5633 5628 5624 5621 5618 5616 5613 5611 5610 5609 5606
5741 5738 5735 5732 5728 5724 5720 5716 5712 5707 5702 5698 5693 5688 5683 5678 5673 5667 5662 5657 5651 5646 5640 5635 5630 5625 5622 5619 5614 5607 5604 5602 5600 5598 5596 5595 5594 5593
5730 5727 5723 5720 5716 5711 5707 5702 5697 5692 5688 5683 5678 5672 5667 5662 5657 5651 5646 5641 5636 5631 5626 5620 5615 5611 5607 5604 5600 5596 5590 5588 5586 5584 5583 5581 5580 5579
5719 5715 5711 5707 5703 5698 5693 5688 5683 5678 5673 5668 5663 5657 5652 5647 5642 5637 5632 5627 5622 5618 5613 5608 5603 5598 5594 5590 5588 5585 5580 5576 5574 5573 5571 5570 5569 5568
5707 5703 5699 5694 5689 5684 5679 5674 5669 5664 5659 5654 5648 5643 5638 5633 5628 5624 5619 5614 5610 5606 5602 5597 5593 5588 5584 5581 5577 5574 5572 5568 5565 5563 5561 5560 5558 5557
5695 5691 5686 5681 5676 5671 5665 5660 5655 5650 5645 5640 5635 5630 5625 5620 5616 5612 5607 5603 5599 5595 5591 5587 5583 5579 5575 5571 5568 5566 5563 5561 5558 5556 5554 5551 5550 5548